SEH6HR LGAV-LGIR

Flight info

Callsign SEH6HR
Flight time N/A
Altitude 25000
Route KEA UL607 GIVIS T514 XAVIS
Aircraft A320/M-SDE3FGHIRWY/LB1

Departure

Time N/A
Airport Athens Eleftherios Venizelos International Airport (LGAV)

Arrival

Time 2026-05-05 18:26
Airport Heraklion International Nikos Kazantzakis Airport (LGIR)
Time Latitude Longitude Altitude Speed Heading
2026-05-05 18:18 35.55849 25.63889 7186 ft 289 kts 235°
2026-05-05 18:18 35.54933 25.61714 6871 ft 280 kts 260°
2026-05-05 18:18 35.54637 25.59375 6552 ft 278 kts 264°
2026-05-05 18:18 35.54139 25.57067 6221 ft 281 kts 252°
2026-05-05 18:19 35.53243 25.54937 5892 ft 282 kts 241°
2026-05-05 18:19 35.52196 25.52911 5570 ft 281 kts 241°
2026-05-05 18:19 35.51155 25.50905 5241 ft 276 kts 241°
2026-05-05 18:19 35.50123 25.48932 4914 ft 273 kts 240°
2026-05-05 18:20 35.49100 25.46983 4586 ft 270 kts 240°
2026-05-05 18:20 35.48088 25.45055 4255 ft 267 kts 240°
2026-05-05 18:20 35.47087 25.43149 3933 ft 264 kts 240°
2026-05-05 18:20 35.46090 25.41279 3677 ft 261 kts 237°
2026-05-05 18:21 35.44809 25.39696 3482 ft 264 kts 219°
2026-05-05 18:21 35.43212 25.38664 3304 ft 258 kts 202°
2026-05-05 18:21 35.41491 25.38155 3125 ft 250 kts 195°
2026-05-05 18:21 35.39825 25.37717 2948 ft 240 kts 195°
2026-05-05 18:22 35.38218 25.37290 2774 ft 233 kts 195°
2026-05-05 18:22 35.36640 25.36870 2589 ft 230 kts 195°
2026-05-05 18:22 35.35079 25.36454 2434 ft 229 kts 196°
2026-05-05 18:22 35.33664 25.35686 2335 ft 219 kts 227°
2026-05-05 18:23 35.32956 25.34172 2324 ft 198 kts 262°
2026-05-05 18:23 35.32965 25.32542 2337 ft 186 kts 276°
2026-05-05 18:23 35.33068 25.31043 2257 ft 171 kts 276°
2026-05-05 18:23 35.33165 25.29618 2019 ft 166 kts 276°
2026-05-05 18:24 35.33262 25.28231 1761 ft 161 kts 275°
2026-05-05 18:24 35.33354 25.26899 1515 ft 152 kts 275°
2026-05-05 18:24 35.33439 25.25671 1302 ft 140 kts 276°
2026-05-05 18:24 35.33520 25.24502 1090 ft 136 kts 275°
2026-05-05 18:25 35.33602 25.23343 892 ft 134 kts 276°
2026-05-05 18:25 35.33628 25.22976 828 ft 133 kts 275°
2026-05-05 18:25 35.33755 25.21101 458 ft 133 kts 275°
2026-05-05 18:25 35.33835 25.19983 274 ft 132 kts 276°
2026-05-05 18:26 35.33919 25.18863 110 ft 131 kts 276°
2026-05-05 18:26 35.33986 25.17896 96 ft 82 kts 274°
2026-05-05 18:26 35.34011 25.17495 91 ft 34 kts 274°
2026-05-05 18:26 35.34024 25.17224 90 ft 28 kts 263°
2026-05-05 18:27 35.33961 25.17048 90 ft 10 kts 202°
2026-05-05 18:27 35.33943 25.17078 91 ft 4 kts 92°
2026-05-05 18:27 35.33934 25.17161 90 ft 18 kts 98°
2026-05-05 18:27 35.33914 25.17342 91 ft 22 kts 112°
2026-05-05 18:28 35.33798 25.17386 94 ft 2 kts 69°
2026-05-05 18:28 35.33821 25.17410 94 ft 2 kts 346°
2026-05-05 18:28 35.33828 25.17405 91 ft 0 kts 323°